sat.trackr.live / text

‹ back to catalog

STARLINK-11705 [DTC]

NORAD 63758 · 2025-089H

PAYLOAD ACTIVE UNKNOWN

§ Identity

Operator
Country
US
Launch date
2025-04-29
Launch site
AFETR
Launch vehicle
Mass (kg)
RCS (m²)

Purposes: comms

External: N2YO · Heavens-Above · Gunter

§ Orbital elements

Epoch: 2026-05-25T04:19:37.595136Z

Period
91.67 min
Inclination
43.0011°
Eccentricity
0.0004656
Mean motion
15.70866708 rev/d
Perigee alt
353.3 km
Apogee alt
359.6 km
Semi-major
6,734.6 km
B*
1.5469e-3
RAAN
191.3461°
Arg perigee
286.1139°
Mean anomaly
73.9216°
Rev number
6,211

§ Raw data

STARLINK-11705 [DTC]1 63758U 25089H   26145.18029624  .00203267  00000+0  15469-2 0  99992 63758  43.0011 191.3461 0004656 286.1139  73.9216 15.70866708 62112

JSON: /api/v1/satellites/63758 · /tle

For live sub-satellite position, see the globe view (requires WebGL).

§ Visibility from observer

Set your observer location to see the next 7 days of passes ≥ 10°. The values pass through the URL so the page stays shareable.

No JS? Fill the form by hand. The geolocation button needs JavaScript.